Powrót do katalogu

STARLINK-31455

AktywnyŁącznośćVLEO
NORAD 59309·PAYLOAD·🇺🇸 United States

Wystrzelony Mar 24, 2024 z Cape Canaveral Space Force Station

Loading…

Następne Przeloty (najbliższe 24 godziny)

TLE

ŚwieżeSource: CelesTrak SupGP

Epoka: Sep 15, 2026, 02:12 UTC

1 59309C 24056P   26258.09215278 -.00042021  00000+0 -15221-2 0  2581
2 59309  43.0024 237.8811 0001266 266.3241 244.0151 15.27596654    18

Śledź STARLINK-31455 w czasie rzeczywistym z AllMySat

Download on the App Store